Location: Sungai Ketit
(2.6833°N, 113.2333°E)
Time: 20:43:16
(UTC+00:00)

Cosmos 1666 - Pass Details

Date: 23 May 2024
Orbit: 438 x 453 km, 82.5° (Epoch: 19 June)

Event Time Altitude Azimuth Distance (km) Brightness Sun altitude
Rises 11:47:20 0° 343° (NNW) 2,418 6.7 -18.4°
Reaches altitude 10° 11:49:29 10° 334° (NNW) 1,548 5.8 -18.9°
Maximum altitude 11:52:36 36° 266° (W) 719 3.9 -19.6°
Enters shadow 11:55:38 11° 199° (SSW) 1,517 5.0 -20.3°
